Time,TemperatureF,DewpointF,PressureIn,WindDirection,WindDirectionDegrees,WindSpeedMPH,WindSpeedGustMPH,Humidity,HourlyPrecipIn,Conditions,Clouds,dailyrainin,SoftwareType,DateUTC
2013-08-13 00:00:00,78.7,76.2,30.02,WSW,250,0.0,0.0,92,0.00,,---,0.02,VWS V14.01,2013-08-13 05:00:00,
2013-08-13 00:06:00,78.6,76.1,30.02,WSW,250,0.0,0.0,92,0.00,,---,0.02,VWS V14.01,2013-08-13 05:06:00,
2013-08-13 00:16:00,78.5,76.3,30.02,WSW,250,0.0,0.0,93,0.00,,---,0.00,VWS V14.01,2013-08-13 05:16:00,
2013-08-13 00:21:00,78.4,76.2,30.01,WSW,250,0.0,0.0,93,0.00,,---,0.00,VWS V14.01,2013-08-13 05:21:00,
2013-08-13 00:26:00,78.4,76.2,30.01,WSW,250,0.0,0.0,93,0.00,,---,0.00,VWS V14.01,2013-08-13 05:26:00,
2013-08-13 00:31:00,78.3,76.1,30.01,WSW,250,0.0,0.0,93,0.00,,---,0.00,VWS V14.01,2013-08-13 05:31:00,
2013-08-13 00:36:00,78.3,76.1,30.01,WSW,250,0.0,0.0,93,0.00,,---,0.00,VWS V14.01,2013-08-13 05:36:00,
2013-08-13 00:41:00,78.3,76.1,30.00,WSW,250,0.0,0.0,93,0.00,,---,0.00,VWS V14.01,2013-08-13 05:41:00,
2013-08-13 00:46:00,78.3,76.1,30.01,WSW,250,0.0,1.0,93,0.00,,---,0.00,VWS V14.01,2013-08-13 05:46:00,
2013-08-13 00:51:00,78.2,76.0,30.00,WSW,250,0.0,1.0,93,0.00,,---,0.00,VWS V14.01,2013-08-13 05:51:00,
2013-08-13 00:56:00,78.2,76.3,30.00,WSW,250,0.0,1.0,94,0.00,,---,0.00,VWS V14.01,2013-08-13 05:56:00,
2013-08-13 01:01:00,78.2,76.3,30.00,WSW,250,0.0,1.0,94,0.00,,---,0.00,VWS V14.01,2013-08-13 06:01:00,
2013-08-13 01:06:00,78.0,76.1,30.00,WSW,250,0.0,1.0,94,0.00,,---,0.00,VWS V14.01,2013-08-13 06:06:00,
2013-08-13 01:11:00,77.8,75.9,30.00,WSW,250,0.0,1.0,94,0.00,,---,0.00,VWS V14.01,2013-08-13 06:11:00,
2013-08-13 01:16:00,77.8,75.9,29.99,WSW,250,0.0,2.0,94,0.00,,---,0.00,VWS V14.01,2013-08-13 06:16:00,
2013-08-13 01:21:00,77.8,75.9,29.99,WSW,250,0.0,2.0,94,0.00,,---,0.00,VWS V14.01,2013-08-13 06:21:00,
2013-08-13 01:26:00,77.8,75.9,29.99,WSW,250,0.0,2.0,94,0.00,,---,0.00,VWS V14.01,2013-08-13 06:26:00,
2013-08-13 01:31:00,77.7,75.8,29.99,WSW,250,0.0,2.0,94,0.00,,---,0.00,VWS V14.01,2013-08-13 06:31:00,
2013-08-13 01:36:00,77.7,75.8,29.99,WSW,250,0.0,2.0,94,0.00,,---,0.00,VWS V14.01,2013-08-13 06:36:00,
2013-08-13 01:41:00,77.8,75.9,29.99,WSW,249,0.0,3.0,94,0.00,,---,0.00,VWS V14.01,2013-08-13 06:41:00,
2013-08-13 01:46:00,77.8,75.9,29.99,WSW,249,0.0,3.0,94,0.00,,---,0.00,VWS V14.01,2013-08-13 06:46:00,
2013-08-13 01:51:00,77.8,75.9,29.98,WSW,249,0.0,3.0,94,0.00,,---,0.00,VWS V14.01,2013-08-13 06:51:00,
2013-08-13 01:56:00,77.8,75.9,29.98,WSW,249,0.0,3.0,94,0.00,,---,0.00,VWS V14.01,2013-08-13 06:56:00,
2013-08-13 02:01:00,77.8,76.3,29.98,WSW,249,0.0,3.0,95,0.00,,---,0.00,VWS V14.01,2013-08-13 07:01:00,
2013-08-13 02:06:00,77.7,76.2,29.98,WSW,249,0.0,3.0,95,0.00,,---,0.00,VWS V14.01,2013-08-13 07:06:00,
2013-08-13 02:11:00,77.7,76.2,29.98,WSW,249,0.0,0.0,95,0.00,,---,0.00,VWS V14.01,2013-08-13 07:11:00,
2013-08-13 02:16:00,77.6,76.1,29.98,WSW,249,0.0,0.0,95,0.00,,---,0.00,VWS V14.01,2013-08-13 07:16:00,
2013-08-13 02:21:00,77.4,75.9,29.98,WSW,249,0.0,0.0,95,0.00,,---,0.00,VWS V14.01,2013-08-13 07:21:00,
2013-08-13 02:26:00,77.4,75.9,29.98,WSW,249,0.0,0.0,95,0.00,,---,0.00,VWS V14.01,2013-08-13 07:26:00,
2013-08-13 02:31:00,77.2,75.7,29.98,WSW,249,0.0,0.0,95,0.00,,---,0.00,VWS V14.01,2013-08-13 07:31:00,
2013-08-13 02:36:00,77.2,75.7,29.97,WSW,249,0.0,0.0,95,0.00,,---,0.00,VWS V14.01,2013-08-13 07:36:00,
2013-08-13 02:41:00,77.1,75.9,29.97,WSW,249,0.0,0.0,96,0.00,,---,0.00,VWS V14.01,2013-08-13 07:41:00,
2013-08-13 02:46:00,77.1,75.9,29.97,WSW,249,0.0,0.0,96,0.00,,---,0.00,VWS V14.01,2013-08-13 07:46:00,
2013-08-13 02:51:00,77.0,75.8,29.97,WSW,249,1.0,1.0,96,0.00,,---,0.00,VWS V14.01,2013-08-13 07:51:00,
2013-08-13 02:56:00,77.0,75.8,29.97,WSW,249,0.0,2.0,96,0.00,,---,0.00,VWS V14.01,2013-08-13 07:56:00,
2013-08-13 03:01:00,76.9,75.7,29.97,WSW,249,0.0,2.0,96,0.00,,---,0.00,VWS V14.01,2013-08-13 08:01:00,
2013-08-13 03:06:00,77.0,75.8,29.97,WSW,249,0.0,2.0,96,0.00,,---,0.00,VWS V14.01,2013-08-13 08:06:00,
2013-08-13 03:11:00,77.0,75.8,29.97,WSW,249,1.0,1.0,96,0.00,,---,0.00,VWS V14.01,2013-08-13 08:11:00,
2013-08-13 03:16:00,77.1,75.9,29.97,WSW,249,0.0,2.0,96,0.00,,---,0.00,VWS V14.01,2013-08-13 08:16:00,
2013-08-13 03:21:00,77.1,75.9,29.97,WSW,249,0.0,2.0,96,0.00,,---,0.00,VWS V14.01,2013-08-13 08:21:00,
2013-08-13 03:26:00,77.0,75.8,29.97,WSW,249,0.0,2.0,96,0.00,,---,0.00,VWS V14.01,2013-08-13 08:26:00,
2013-08-13 03:31:00,76.9,75.7,29.97,WSW,249,0.0,2.0,96,0.00,,---,0.00,VWS V14.01,2013-08-13 08:31:00,
2013-08-13 03:36:00,76.9,75.7,29.97,WSW,249,0.0,2.0,96,0.00,,---,0.00,VWS V14.01,2013-08-13 08:36:00,
2013-08-13 03:41:00,76.9,75.7,29.97,WSW,249,0.0,0.0,96,0.00,,---,0.00,VWS V14.01,2013-08-13 08:41:00,
2013-08-13 03:46:00,76.9,75.7,29.97,WSW,249,0.0,0.0,96,0.00,,---,0.00,VWS V14.01,2013-08-13 08:46:00,
2013-08-13 03:51:00,76.8,75.6,29.97,WSW,249,0.0,1.0,96,0.00,,---,0.00,VWS V14.01,2013-08-13 08:51:00,
2013-08-13 03:56:00,76.7,75.5,29.98,WSW,249,0.0,1.0,96,0.00,,---,0.00,VWS V14.01,2013-08-13 08:56:00,
2013-08-13 04:01:00,76.8,75.9,29.98,WSW,249,1.0,1.0,97,0.00,,---,0.00,VWS V14.01,2013-08-13 09:01:00,
2013-08-13 04:06:00,76.8,75.9,29.97,WSW,249,0.0,1.0,97,0.00,,---,0.00,VWS V14.01,2013-08-13 09:06:00,
2013-08-13 04:11:00,76.8,75.9,29.97,WSW,249,0.0,0.0,97,0.00,,---,0.00,VWS V14.01,2013-08-13 09:11:00,
2013-08-13 04:16:00,76.7,75.8,29.97,WSW,249,0.0,0.0,97,0.00,,---,0.00,VWS V14.01,2013-08-13 09:16:00,
2013-08-13 04:21:00,76.7,75.8,29.97,WSW,249,0.0,1.0,97,0.00,,---,0.00,VWS V14.01,2013-08-13 09:21:00,
2013-08-13 04:26:00,76.6,75.7,29.97,WSW,249,0.0,1.0,97,0.00,,---,0.00,VWS V14.01,2013-08-13 09:26:00,
2013-08-13 04:31:00,76.5,75.6,29.97,WSW,249,0.0,1.0,97,0.00,,---,0.00,VWS V14.01,2013-08-13 09:31:00,
2013-08-13 04:36:00,76.5,75.6,29.97,WSW,249,0.0,1.0,97,0.00,,---,0.00,VWS V14.01,2013-08-13 09:36:00,
2013-08-13 04:41:00,76.4,75.5,29.98,WSW,249,0.0,0.0,97,0.00,,---,0.00,VWS V14.01,2013-08-13 09:41:00,
2013-08-13 04:46:00,76.4,75.5,29.98,WSW,249,0.0,1.0,97,0.00,,---,0.00,VWS V14.01,2013-08-13 09:46:00,
2013-08-13 04:51:00,76.3,75.4,29.98,WSW,249,0.0,1.0,97,0.00,,---,0.00,VWS V14.01,2013-08-13 09:51:00,
2013-08-13 04:56:00,76.4,75.5,29.99,WSW,249,0.0,1.0,97,0.00,,---,0.00,VWS V14.01,2013-08-13 09:56:00,
2013-08-13 05:01:00,76.3,75.4,29.98,WSW,249,0.0,1.0,97,0.00,,---,0.00,VWS V14.01,2013-08-13 10:01:00,
2013-08-13 05:06:00,76.3,75.4,29.99,WSW,249,0.0,1.0,97,0.00,,---,0.00,VWS V14.01,2013-08-13 10:06:00,
2013-08-13 05:11:00,76.2,75.3,29.99,WSW,249,0.0,0.0,97,0.00,,---,0.00,VWS V14.01,2013-08-13 10:11:00,
2013-08-13 05:16:00,76.2,75.3,29.99,WSW,249,0.0,0.0,97,0.00,,---,0.00,VWS V14.01,2013-08-13 10:16:00,
2013-08-13 05:21:00,76.2,75.3,29.99,WSW,249,0.0,0.0,97,0.00,,---,0.00,VWS V14.01,2013-08-13 10:21:00,
2013-08-13 05:26:00,76.1,75.2,29.99,WSW,249,0.0,0.0,97,0.00,,---,0.00,VWS V14.01,2013-08-13 10:26:00,
2013-08-13 05:31:00,76.0,75.1,29.99,WSW,249,0.0,0.0,97,0.00,,---,0.00,VWS V14.01,2013-08-13 10:31:00,
2013-08-13 05:36:00,76.0,75.1,29.99,WSW,249,0.0,0.0,97,0.00,,---,0.00,VWS V14.01,2013-08-13 10:36:00,
2013-08-13 05:42:00,75.9,75.0,29.99,WSW,249,0.0,0.0,97,0.00,,---,0.00,VWS V14.01,2013-08-13 10:42:00,
2013-08-13 05:47:00,75.9,75.0,29.99,WSW,249,0.0,0.0,97,0.00,,---,0.00,VWS V14.01,2013-08-13 10:47:00,
2013-08-13 05:52:00,75.8,74.9,29.99,WSW,249,0.0,0.0,97,0.00,,---,0.00,VWS V14.01,2013-08-13 10:52:00,
2013-08-13 05:57:00,75.8,74.9,29.99,WSW,249,0.0,0.0,97,0.00,,---,0.00,VWS V14.01,2013-08-13 10:57:00,
2013-08-13 06:02:00,75.8,74.9,29.99,WSW,249,0.0,0.0,97,0.00,,---,0.00,VWS V14.01,2013-08-13 11:02:00,
2013-08-13 06:06:00,75.8,74.9,30.00,WSW,249,0.0,0.0,97,0.00,,---,0.00,VWS V14.01,2013-08-13 11:06:00,
2013-08-13 06:07:00,75.8,74.9,30.00,WSW,249,0.0,0.0,97,0.00,,---,0.00,VWS V14.01,2013-08-13 11:07:00,
2013-08-13 06:12:00,75.7,74.8,30.00,WSW,249,0.0,0.0,97,0.00,,---,0.00,VWS V14.01,2013-08-13 11:12:00,
2013-08-13 06:17:00,75.7,74.8,30.00,WSW,249,0.0,0.0,97,0.00,,---,0.00,VWS V14.01,2013-08-13 11:17:00,
2013-08-13 06:22:00,75.7,74.8,30.00,WSW,249,0.0,0.0,97,0.00,,---,0.00,VWS V14.01,2013-08-13 11:22:00,
2013-08-13 06:27:00,75.6,74.7,30.00,WSW,249,0.0,0.0,97,0.00,,---,0.00,VWS V14.01,2013-08-13 11:27:00,
2013-08-13 06:32:00,75.6,74.7,30.00,WSW,249,0.0,0.0,97,0.00,,---,0.00,VWS V14.01,2013-08-13 11:32:00,
2013-08-13 06:36:00,75.5,74.6,30.00,WSW,249,0.0,0.0,97,0.00,,---,0.00,VWS V14.01,2013-08-13 11:36:00,
2013-08-13 06:37:00,75.5,74.6,30.00,WSW,249,0.0,0.0,97,0.00,,---,0.00,VWS V14.01,2013-08-13 11:37:00,
2013-08-13 06:42:00,75.5,74.6,30.00,WSW,249,0.0,0.0,97,0.00,,---,0.00,VWS V14.01,2013-08-13 11:42:00,
2013-08-13 06:47:00,75.5,74.6,30.00,WSW,249,0.0,0.0,97,0.00,,---,0.00,VWS V14.01,2013-08-13 11:47:00,
2013-08-13 06:52:00,75.5,74.6,30.00,WSW,249,0.0,0.0,97,0.00,,---,0.00,VWS V14.01,2013-08-13 11:52:00,
2013-08-13 06:57:00,75.5,74.6,30.00,WSW,249,0.0,1.0,97,0.00,,---,0.00,VWS V14.01,2013-08-13 11:57:00,
2013-08-13 07:02:00,75.5,74.6,30.00,WSW,249,0.0,1.0,97,0.00,,---,0.00,VWS V14.01,2013-08-13 12:02:00,
2013-08-13 07:06:00,75.6,74.7,30.00,WSW,249,0.0,1.0,97,0.00,,---,0.00,VWS V14.01,2013-08-13 12:06:00,
2013-08-13 07:07:00,75.6,74.7,30.00,WSW,249,0.0,0.0,97,0.00,,---,0.00,VWS V14.01,2013-08-13 12:07:00,
2013-08-13 07:12:00,75.7,74.8,30.00,WSW,249,0.0,0.0,97,0.00,,---,0.00,VWS V14.01,2013-08-13 12:12:00,
2013-08-13 07:17:00,75.8,74.9,30.01,WSW,249,0.0,0.0,97,0.00,,---,0.00,VWS V14.01,2013-08-13 12:17:00,
2013-08-13 07:22:00,75.9,75.0,30.01,WSW,249,0.0,0.0,97,0.00,,---,0.00,VWS V14.01,2013-08-13 12:22:00,
2013-08-13 07:27:00,76.0,75.1,30.01,WSW,249,0.0,0.0,97,0.00,,---,0.00,VWS V14.01,2013-08-13 12:27:00,
2013-08-13 07:32:00,76.2,75.3,30.01,WSW,249,0.0,1.0,97,0.00,,---,0.00,VWS V14.01,2013-08-13 12:32:00,
2013-08-13 07:37:00,76.5,75.9,30.01,WSW,252,1.0,2.0,98,0.00,,---,0.00,VWS V14.01,2013-08-13 12:37:00,
2013-08-13 07:42:00,76.9,76.3,30.01,WSW,240,1.0,3.0,98,0.00,,---,0.00,VWS V14.01,2013-08-13 12:42:00,
2013-08-13 07:47:00,77.1,76.5,30.01,SW,229,1.0,3.0,98,0.00,,---,0.00,VWS V14.01,2013-08-13 12:47:00,
2013-08-13 07:52:00,77.4,76.8,30.01,West,274,3.0,4.0,98,0.00,,---,0.00,VWS V14.01,2013-08-13 12:52:00,
2013-08-13 07:57:00,77.7,77.1,30.01,West,259,0.0,4.0,98,0.00,,---,0.00,VWS V14.01,2013-08-13 12:57:00,
2013-08-13 08:02:00,78.0,77.4,30.01,WSW,248,1.0,4.0,98,0.00,,---,0.00,VWS V14.01,2013-08-13 13:02:00,
2013-08-13 08:06:00,78.4,77.8,30.01,West,269,4.0,6.0,98,0.00,,---,0.00,VWS V14.01,2013-08-13 13:06:00,
2013-08-13 08:07:00,78.5,77.9,30.01,WSW,254,3.0,5.0,98,0.00,,---,0.00,VWS V14.01,2013-08-13 13:07:00,
2013-08-13 08:12:00,78.9,78.0,30.01,SW,221,3.0,5.0,97,0.00,,---,0.00,VWS V14.01,2013-08-13 13:12:00,
2013-08-13 08:17:00,79.4,78.5,30.01,WNW,290,7.0,9.0,97,0.00,,---,0.00,VWS V14.01,2013-08-13 13:17:00,
2013-08-13 08:22:00,80.0,78.8,30.02,West,280,2.0,9.0,96,0.00,,---,0.00,VWS V14.01,2013-08-13 13:22:00,
2013-08-13 08:27:00,80.8,78.9,30.02,WNW,296,2.0,9.0,94,0.00,,---,0.00,VWS V14.01,2013-08-13 13:27:00,
2013-08-13 08:32:00,81.5,79.3,30.02,West,261,6.0,9.0,93,0.00,,---,0.00,VWS V14.01,2013-08-13 13:32:00,
2013-08-13 08:36:00,81.9,79.3,30.02,West,271,3.0,9.0,92,0.00,,---,0.00,VWS V14.01,2013-08-13 13:36:00,
2013-08-13 08:37:00,82.0,79.4,30.01,SW,218,3.0,5.0,92,0.00,,---,0.00,VWS V14.01,2013-08-13 13:37:00,
2013-08-13 08:42:00,82.5,79.3,30.01,WSW,240,3.0,10.0,90,0.00,,---,0.00,VWS V14.01,2013-08-13 13:42:00,
2013-08-13 08:47:00,82.6,79.0,30.02,West,277,12.0,12.0,89,0.00,,---,0.00,VWS V14.01,2013-08-13 13:47:00,
2013-08-13 08:52:00,82.9,79.3,30.02,West,269,2.0,12.0,89,0.00,,---,0.00,VWS V14.01,2013-08-13 13:52:00,
2013-08-13 08:57:00,82.9,79.0,30.02,West,264,5.0,12.0,88,0.00,,---,0.00,VWS V14.01,2013-08-13 13:57:00,
2013-08-13 09:02:00,83.1,78.8,30.02,WSW,257,4.0,12.0,87,0.00,,---,0.00,VWS V14.01,2013-08-13 14:02:00,
2013-08-13 09:06:00,83.4,79.1,30.02,West,270,3.0,12.0,87,0.00,,---,0.00,VWS V14.01,2013-08-13 14:06:00,
2013-08-13 09:07:00,83.5,79.2,30.02,SW,235,4.0,6.0,87,0.00,,---,0.00,VWS V14.01,2013-08-13 14:07:00,
2013-08-13 09:12:00,83.9,79.3,30.02,WNW,297,6.0,10.0,86,0.00,,---,0.00,VWS V14.01,2013-08-13 14:12:00,
2013-08-13 09:17:00,84.1,79.1,30.02,NW,307,3.0,12.0,85,0.00,,---,0.00,VWS V14.01,2013-08-13 14:17:00,
2013-08-13 09:22:00,84.3,79.3,30.02,WSW,247,4.0,12.0,85,0.00,,---,0.00,VWS V14.01,2013-08-13 14:22:00,
2013-08-13 09:27:00,84.1,79.1,30.02,NW,305,7.0,12.0,85,0.00,,---,0.00,VWS V14.01,2013-08-13 14:27:00,
2013-08-13 09:32:00,84.5,79.5,30.02,West,264,4.0,12.0,85,0.00,,---,0.00,VWS V14.01,2013-08-13 14:32:00,
2013-08-13 09:36:00,85.2,79.5,30.02,SW,233,10.0,12.0,83,0.00,,---,0.00,VWS V14.01,2013-08-13 14:36:00,
2013-08-13 09:37:00,85.2,79.1,30.02,WNW,300,4.0,12.0,82,0.00,,---,0.00,VWS V14.01,2013-08-13 14:37:00,
2013-08-13 09:42:00,85.6,79.1,30.02,West,263,5.0,17.0,81,0.00,,---,0.00,VWS V14.01,2013-08-13 14:42:00,
2013-08-13 09:47:00,85.7,79.6,30.02,WNW,292,6.0,17.0,82,0.00,,---,0.00,VWS V14.01,2013-08-13 14:47:00,
2013-08-13 09:52:00,85.7,79.9,30.02,West,272,6.0,17.0,83,0.00,,---,0.00,VWS V14.01,2013-08-13 14:52:00,
2013-08-13 09:57:00,86.0,79.5,30.02,West,259,7.0,17.0,81,0.00,,---,0.00,VWS V14.01,2013-08-13 14:57:00,
2013-08-13 10:02:00,85.9,79.0,30.02,NNW,337,3.0,17.0,80,0.00,,---,0.00,VWS V14.01,2013-08-13 15:02:00,
2013-08-13 10:06:00,85.9,79.0,30.02,West,279,4.0,17.0,80,0.00,,---,0.00,VWS V14.01,2013-08-13 15:06:00,
2013-08-13 10:07:00,86.0,78.7,30.02,WNW,292,10.0,11.0,79,0.00,,---,0.00,VWS V14.01,2013-08-13 15:07:00,
2013-08-13 10:12:00,86.2,78.5,30.02,West,278,3.0,11.0,78,0.00,,---,0.00,VWS V14.01,2013-08-13 15:12:00,
2013-08-13 10:17:00,85.8,78.5,30.02,SW,219,3.0,11.0,79,0.00,,---,0.00,VWS V14.01,2013-08-13 15:17:00,
2013-08-13 10:22:00,85.9,79.0,30.02,NNW,327,1.0,11.0,80,0.00,,---,0.00,VWS V14.01,2013-08-13 15:22:00,
2013-08-13 10:27:00,86.3,79.4,30.02,WNW,285,3.0,11.0,80,0.00,,---,0.00,VWS V14.01,2013-08-13 15:27:00,
2013-08-13 10:32:00,86.4,79.1,30.02,WNW,298,8.0,11.0,79,0.00,,---,0.00,VWS V14.01,2013-08-13 15:32:00,
2013-08-13 10:36:00,87.4,80.1,30.02,WNW,290,5.0,11.0,79,0.00,,---,0.00,VWS V14.01,2013-08-13 15:36:00,
2013-08-13 10:37:00,87.5,79.0,30.02,WNW,298,5.0,8.0,76,0.00,,---,0.00,VWS V14.01,2013-08-13 15:37:00,
2013-08-13 10:42:00,88.1,80.0,30.02,NNW,344,4.0,8.0,77,0.00,,---,0.00,VWS V14.01,2013-08-13 15:42:00,
2013-08-13 10:47:00,87.8,78.9,30.02,WNW,295,2.0,8.0,75,0.00,,---,0.00,VWS V14.01,2013-08-13 15:47:00,
2013-08-13 10:52:00,88.2,78.9,30.02,West,279,10.0,10.0,74,0.00,,---,0.00,VWS V14.01,2013-08-13 15:52:00,
2013-08-13 10:58:00,88.5,78.7,30.02,West,259,6.0,10.0,73,0.00,,---,0.00,VWS V14.01,2013-08-13 15:58:00,
2013-08-13 11:03:00,87.4,78.5,30.02,West,259,2.0,10.0,75,0.00,,---,0.00,VWS V14.01,2013-08-13 16:03:00,
2013-08-13 11:06:00,87.8,79.3,30.02,West,281,3.0,10.0,76,0.00,,---,0.00,VWS V14.01,2013-08-13 16:06:00,
2013-08-13 11:08:00,88.3,79.8,30.02,West,269,5.0,7.0,76,0.00,,---,0.00,VWS V14.01,2013-08-13 16:08:00,
2013-08-13 11:13:00,89.3,79.9,30.02,West,279,3.0,9.0,74,0.00,,---,0.00,VWS V14.01,2013-08-13 16:13:00,
2013-08-13 11:18:00,89.8,79.1,30.02,NW,310,0.0,9.0,71,0.00,,---,0.00,VWS V14.01,2013-08-13 16:18:00,
2013-08-13 11:23:00,89.8,79.6,30.02,WNW,297,4.0,9.0,72,0.00,,---,0.00,VWS V14.01,2013-08-13 16:23:00,
2013-08-13 11:28:00,89.7,78.6,30.01,WSW,257,2.0,9.0,70,0.00,,---,0.00,VWS V14.01,2013-08-13 16:28:00,
2013-08-13 11:33:00,90.2,78.7,30.01,WNW,294,5.0,9.0,69,0.00,,---,0.00,VWS V14.01,2013-08-13 16:33:00,
2013-08-13 11:36:00,89.7,78.6,30.01,West,263,5.0,9.0,70,0.00,,---,0.00,VWS V14.01,2013-08-13 16:36:00,
2013-08-13 11:38:00,89.3,77.8,30.01,NW,323,5.0,7.0,69,0.00,,---,0.00,VWS V14.01,2013-08-13 16:38:00,
2013-08-13 11:43:00,89.1,77.6,30.01,WSW,253,3.0,9.0,69,0.00,,---,0.00,VWS V14.01,2013-08-13 16:43:00,
2013-08-13 11:48:00,89.6,78.9,30.01,WSW,240,3.0,9.0,71,0.00,,---,0.00,VWS V14.01,2013-08-13 16:48:00,
2013-08-13 11:53:00,89.1,78.9,30.01,WNW,292,4.0,9.0,72,0.00,,---,0.00,VWS V14.01,2013-08-13 16:53:00,
2013-08-13 11:58:00,89.0,78.4,30.01,SW,232,3.0,9.0,71,0.00,,---,0.00,VWS V14.01,2013-08-13 16:58:00,
2013-08-13 12:03:00,89.5,78.9,30.01,NW,311,4.0,9.0,71,0.00,,---,0.00,VWS V14.01,2013-08-13 17:03:00,
2013-08-13 12:06:00,89.6,78.1,30.00,WNW,290,5.0,9.0,69,0.00,,---,0.00,VWS V14.01,2013-08-13 17:06:00,
2013-08-13 12:08:00,89.4,78.8,30.00,WSW,246,3.0,7.0,71,0.00,,---,0.00,VWS V14.01,2013-08-13 17:08:00,
2013-08-13 12:13:00,89.6,80.2,30.00,West,275,3.0,7.0,74,0.00,,---,0.00,VWS V14.01,2013-08-13 17:13:00,
2013-08-13 12:18:00,90.8,79.2,30.00,West,269,3.0,9.0,69,0.00,,---,0.00,VWS V14.01,2013-08-13 17:18:00,
2013-08-13 12:23:00,90.7,79.1,30.00,WSW,239,4.0,9.0,69,0.00,,---,0.00,VWS V14.01,2013-08-13 17:23:00,
2013-08-13 12:28:00,91.6,80.4,30.00,WSW,251,4.0,9.0,70,0.00,,---,0.00,VWS V14.01,2013-08-13 17:28:00,
2013-08-13 12:33:00,91.6,80.0,29.99,WNW,285,2.0,9.0,69,0.00,,---,0.00,VWS V14.01,2013-08-13 17:33:00,
2013-08-13 12:36:00,91.9,78.9,29.99,WNW,298,6.0,9.0,66,0.00,,---,0.00,VWS V14.01,2013-08-13 17:36:00,
2013-08-13 12:38:00,91.9,78.5,29.99,WSW,252,1.0,7.0,65,0.00,,---,0.00,VWS V14.01,2013-08-13 17:38:00,
2013-08-13 12:43:00,91.6,79.6,29.99,WSW,249,1.0,7.0,68,0.00,,---,0.00,VWS V14.01,2013-08-13 17:43:00,
2013-08-13 12:48:00,91.2,78.3,29.99,NW,326,0.0,7.0,66,0.00,,---,0.00,VWS V14.01,2013-08-13 17:48:00,
2013-08-13 12:53:00,91.9,81.2,29.98,NNW,333,2.0,7.0,71,0.00,,---,0.00,VWS V14.01,2013-08-13 17:53:00,
2013-08-13 12:58:00,90.8,78.8,29.98,WNW,286,1.0,7.0,68,0.00,,---,0.00,VWS V14.01,2013-08-13 17:58:00,
2013-08-13 13:03:00,92.1,80.0,29.97,NW,311,6.0,7.0,68,0.00,,---,0.00,VWS V14.01,2013-08-13 18:03:00,
2013-08-13 13:06:00,92.1,77.7,29.97,NNW,328,5.0,8.0,63,0.00,,---,0.00,VWS V14.01,2013-08-13 18:06:00,
2013-08-13 13:08:00,92.1,78.7,29.98,WNW,292,2.0,5.0,65,0.00,,---,0.00,VWS V14.01,2013-08-13 18:08:00,
2013-08-13 13:13:00,91.6,79.1,29.97,West,266,3.0,5.0,67,0.00,,---,0.00,VWS V14.01,2013-08-13 18:13:00,
2013-08-13 13:18:00,92.3,79.8,29.97,West,269,5.0,6.0,67,0.00,,---,0.00,VWS V14.01,2013-08-13 18:18:00,
2013-08-13 13:23:00,93.8,81.2,29.97,West,263,4.0,6.0,67,0.00,,---,0.00,VWS V14.01,2013-08-13 18:23:00,
2013-08-13 13:28:00,92.0,79.5,29.96,South,188,3.0,6.0,67,0.00,,---,0.00,VWS V14.01,2013-08-13 18:28:00,
2013-08-13 13:33:00,92.2,80.6,29.96,WNW,288,3.0,6.0,69,0.00,,---,0.00,VWS V14.01,2013-08-13 18:33:00,
2013-08-13 13:38:00,93.2,80.2,29.95,NW,316,1.0,6.0,66,0.00,,---,0.00,VWS V14.01,2013-08-13 18:38:00,
2013-08-13 13:43:00,93.0,79.5,29.95,WNW,300,3.0,8.0,65,0.00,,---,0.00,VWS V14.01,2013-08-13 18:43:00,
2013-08-13 13:48:00,92.9,78.4,29.95,WSW,245,4.0,8.0,63,0.00,,---,0.00,VWS V14.01,2013-08-13 18:48:00,
2013-08-13 13:53:00,93.7,79.2,29.94,WSW,253,5.0,9.0,63,0.00,,---,0.00,VWS V14.01,2013-08-13 18:53:00,
2013-08-13 13:58:00,93.8,80.3,29.93,SSW,202,6.0,9.0,65,0.00,,---,0.00,VWS V14.01,2013-08-13 18:58:00,
2013-08-13 14:03:00,94.4,79.4,29.93,SW,218,4.0,9.0,62,0.00,,---,0.00,VWS V14.01,2013-08-13 19:03:00,
2013-08-13 14:06:00,93.6,79.1,29.93,WSW,245,3.0,9.0,63,0.00,,---,0.00,VWS V14.01,2013-08-13 19:06:00,
2013-08-13 14:08:00,93.6,79.1,29.93,SSW,206,0.0,3.0,63,0.00,,---,0.00,VWS V14.01,2013-08-13 19:08:00,
2013-08-13 14:13:00,93.8,78.8,29.92,West,269,4.0,6.0,62,0.00,,---,0.00,VWS V14.01,2013-08-13 19:13:00,
2013-08-13 14:18:00,94.2,78.2,29.92,WSW,252,2.0,6.0,60,0.00,,---,0.00,VWS V14.01,2013-08-13 19:18:00,
2013-08-13 14:23:00,93.8,77.8,29.91,WNW,288,5.0,7.0,60,0.00,,---,0.00,VWS V14.01,2013-08-13 19:23:00,
2013-08-13 14:28:00,93.8,77.8,29.91,WNW,287,2.0,7.0,60,0.00,,---,0.00,VWS V14.01,2013-08-13 19:28:00,
2013-08-13 14:33:00,93.1,78.6,29.91,SW,236,3.0,7.0,63,0.00,,---,0.00,VWS V14.01,2013-08-13 19:33:00,
2013-08-13 14:38:00,92.6,78.2,29.91,West,271,1.0,7.0,63,0.00,,---,0.00,VWS V14.01,2013-08-13 19:38:00,
2013-08-13 14:43:00,91.7,77.3,29.91,West,263,3.0,7.0,63,0.00,,---,0.00,VWS V14.01,2013-08-13 19:43:00,
2013-08-13 14:48:00,92.2,78.3,29.91,SSW,210,4.0,7.0,64,0.00,,---,0.00,VWS V14.01,2013-08-13 19:48:00,
2013-08-13 14:53:00,92.8,77.4,29.91,West,267,6.0,7.0,61,0.00,,---,0.00,VWS V14.01,2013-08-13 19:53:00,
2013-08-13 14:58:00,91.9,76.0,29.92,West,265,8.0,15.0,60,0.00,,---,0.00,VWS V14.01,2013-08-13 19:58:00,
2013-08-13 15:03:00,89.8,76.0,29.92,NW,304,7.0,15.0,64,0.00,,---,0.00,VWS V14.01,2013-08-13 20:03:00,
2013-08-13 15:06:00,88.6,76.2,29.92,WNW,282,4.0,15.0,67,0.00,,---,0.00,VWS V14.01,2013-08-13 20:06:00,
2013-08-13 15:08:00,87.9,76.5,29.93,WNW,290,6.0,10.0,69,0.00,,---,0.00,VWS V14.01,2013-08-13 20:08:00,
2013-08-13 15:13:00,86.8,76.3,29.93,WNW,286,5.0,10.0,71,0.00,,---,0.00,VWS V14.01,2013-08-13 20:13:00,
2013-08-13 15:18:00,86.2,75.3,29.92,WSW,248,4.0,11.0,70,0.00,,---,0.00,VWS V14.01,2013-08-13 20:18:00,
2013-08-13 15:23:00,85.9,74.6,29.92,SSW,196,7.0,11.0,69,0.00,,---,0.00,VWS V14.01,2013-08-13 20:23:00,
2013-08-13 15:28:00,85.1,73.4,29.92,West,261,4.0,11.0,68,0.00,,---,0.00,VWS V14.01,2013-08-13 20:28:00,
2013-08-13 15:33:00,84.6,72.9,29.92,WSW,252,2.0,11.0,68,0.00,,---,0.00,VWS V14.01,2013-08-13 20:33:00,
2013-08-13 15:38:00,86.4,75.0,29.91,WSW,258,4.0,7.0,69,0.00,,---,0.00,VWS V14.01,2013-08-13 20:38:00,
2013-08-13 15:43:00,87.8,75.0,29.90,SW,234,2.0,7.0,66,0.00,,---,0.00,VWS V14.01,2013-08-13 20:43:00,
2013-08-13 15:48:00,88.3,74.6,29.89,WSW,237,3.0,7.0,64,0.00,,---,0.00,VWS V14.01,2013-08-13 20:48:00,
2013-08-13 15:53:00,88.9,76.1,29.89,SW,220,0.0,7.0,66,0.00,,---,0.00,VWS V14.01,2013-08-13 20:53:00,
2013-08-13 15:58:00,89.7,76.8,29.89,WSW,243,1.0,7.0,66,0.00,,---,0.00,VWS V14.01,2013-08-13 20:58:00,
2013-08-13 16:03:00,89.4,77.0,29.89,WSW,243,0.0,7.0,67,0.00,,---,0.00,VWS V14.01,2013-08-13 21:03:00,
2013-08-13 16:06:00,89.3,77.4,29.89,WSW,243,0.0,7.0,68,0.00,,---,0.00,VWS V14.01,2013-08-13 21:06:00,
2013-08-13 16:08:00,90.3,80.5,29.89,NNE,32,0.0,2.0,73,0.00,,---,0.00,VWS V14.01,2013-08-13 21:08:00,
2013-08-13 16:13:00,90.6,76.3,29.89,East,96,0.0,3.0,63,0.00,,---,0.00,VWS V14.01,2013-08-13 21:13:00,
2013-08-13 16:18:00,91.0,77.6,29.88,East,96,2.0,3.0,65,0.00,,---,0.00,VWS V14.01,2013-08-13 21:18:00,
2013-08-13 16:23:00,91.5,78.1,29.88,SW,231,1.0,3.0,65,0.00,,---,0.00,VWS V14.01,2013-08-13 21:23:00,
2013-08-13 16:28:00,92.9,78.4,29.88,SW,231,2.0,3.0,63,0.00,,---,0.00,VWS V14.01,2013-08-13 21:28:00,
2013-08-13 16:33:00,92.7,79.2,29.88,WSW,248,0.0,3.0,65,0.00,,---,0.00,VWS V14.01,2013-08-13 21:33:00,
2013-08-13 16:36:00,93.1,76.7,29.88,WSW,248,0.0,3.0,59,0.00,,---,0.00,VWS V14.01,2013-08-13 21:36:00,
2013-08-13 16:39:00,93.5,77.5,29.88,WSW,244,2.0,4.0,60,0.00,,---,0.00,VWS V14.01,2013-08-13 21:39:00,
2013-08-13 16:44:00,93.7,76.2,29.88,SW,233,0.0,4.0,57,0.00,,---,0.00,VWS V14.01,2013-08-13 21:44:00,
2013-08-13 16:49:00,93.1,79.6,29.88,SW,233,0.0,4.0,65,0.00,,---,0.00,VWS V14.01,2013-08-13 21:49:00,
2013-08-13 16:54:00,92.9,78.0,29.88,West,272,1.0,4.0,62,0.00,,---,0.00,VWS V14.01,2013-08-13 21:54:00,
2013-08-13 16:59:00,91.7,80.1,29.88,West,272,0.0,4.0,69,0.00,,---,0.00,VWS V14.01,2013-08-13 21:59:00,
2013-08-13 17:04:00,92.1,80.0,29.88,SW,234,0.0,4.0,68,0.00,,---,0.00,VWS V14.01,2013-08-13 22:04:00,
2013-08-13 17:09:00,92.7,79.2,29.88,WSW,255,0.0,3.0,65,0.00,,---,0.00,VWS V14.01,2013-08-13 22:09:00,
2013-08-13 17:14:00,92.6,80.0,29.88,WSW,252,0.0,3.0,67,0.00,,---,0.00,VWS V14.01,2013-08-13 22:14:00,
2013-08-13 17:19:00,92.1,80.0,29.88,WSW,252,0.0,3.0,68,0.00,,---,0.00,VWS V14.01,2013-08-13 22:19:00,
2013-08-13 17:24:00,92.1,80.0,29.89,WSW,252,0.0,3.0,68,0.00,,---,0.00,VWS V14.01,2013-08-13 22:24:00,
2013-08-13 17:29:00,91.3,79.3,29.90,NW,323,1.0,3.0,68,0.00,,---,0.00,VWS V14.01,2013-08-13 22:29:00,
2013-08-13 17:34:00,89.3,77.4,29.91,ENE,61,10.0,14.0,68,0.00,,---,0.00,VWS V14.01,2013-08-13 22:34:00,
2013-08-13 17:36:00,87.8,76.8,29.91,East,82,7.0,14.0,70,0.00,,---,0.00,VWS V14.01,2013-08-13 22:36:00,
2013-08-13 17:39:00,86.3,76.6,29.90,SSW,194,7.0,10.0,73,0.00,,---,0.00,VWS V14.01,2013-08-13 22:39:00,
2013-08-13 17:44:00,84.5,76.1,29.92,East,91,2.0,10.0,76,0.00,,---,0.00,VWS V14.01,2013-08-13 22:44:00,
2013-08-13 17:49:00,83.5,75.5,29.93,East,85,8.0,14.0,77,0.00,,---,0.00,VWS V14.01,2013-08-13 22:49:00,
2013-08-13 17:54:00,81.9,74.8,29.93,East,84,3.0,14.0,79,0.00,,---,0.00,VWS V14.01,2013-08-13 22:54:00,
2013-08-13 17:59:00,80.7,74.7,29.94,East,94,3.0,14.0,82,0.00,,---,0.00,VWS V14.01,2013-08-13 22:59:00,
2013-08-13 18:04:00,79.4,74.8,29.93,East,94,3.0,14.0,86,0.00,,---,0.00,VWS V14.01,2013-08-13 23:04:00,
2013-08-13 18:06:00,78.7,74.5,29.93,ENE,76,3.0,14.0,87,0.00,,---,0.00,VWS V14.01,2013-08-13 23:06:00,
2013-08-13 18:09:00,78.2,74.4,29.94,ENE,72,0.0,3.0,88,0.00,,---,0.00,VWS V14.01,2013-08-13 23:09:00,
2013-08-13 18:14:00,77.3,74.1,29.95,NE,37,4.0,6.0,90,0.00,,---,0.00,VWS V14.01,2013-08-13 23:14:00,
2013-08-13 18:19:00,76.7,73.6,29.94,ESE,116,5.0,10.0,90,0.05,,---,0.05,VWS V14.01,2013-08-13 23:19:00,
2013-08-13 18:24:00,75.9,73.4,29.95,East,96,0.0,10.0,92,0.05,,---,0.05,VWS V14.01,2013-08-13 23:24:00,
2013-08-13 18:29:00,75.7,73.5,29.97,ESE,123,0.0,10.0,93,0.05,,---,0.05,VWS V14.01,2013-08-13 23:29:00,
2013-08-13 18:34:00,75.6,73.8,29.97,ESE,123,0.0,10.0,94,0.05,,---,0.05,VWS V14.01,2013-08-13 23:34:00,
2013-08-13 18:39:00,75.5,73.7,29.97,ESE,123,0.0,1.0,94,0.05,,---,0.05,VWS V14.01,2013-08-13 23:39:00,
2013-08-13 18:44:00,75.3,73.8,29.97,ESE,123,1.0,1.0,95,0.05,,---,0.05,VWS V14.01,2013-08-13 23:44:00,
2013-08-13 18:49:00,75.2,73.7,29.96,ESE,111,1.0,2.0,95,0.05,,---,0.05,VWS V14.01,2013-08-13 23:49:00,
2013-08-13 18:54:00,75.2,73.7,29.96,ESE,111,2.0,2.0,95,0.06,,---,0.06,VWS V14.01,2013-08-13 23:54:00,
2013-08-13 18:59:00,75.1,73.6,29.95,East,92,1.0,3.0,95,0.06,,---,0.06,VWS V14.01,2013-08-13 23:59:00,
2013-08-13 19:04:00,74.9,73.4,29.95,East,90,1.0,3.0,95,0.06,,---,0.06,VWS V14.01,2013-08-14 00:04:00,
2013-08-13 19:06:00,74.9,73.4,29.95,East,90,2.0,3.0,95,0.06,,---,0.06,VWS V14.01,2013-08-14 00:06:00,
2013-08-13 19:09:00,74.9,73.4,29.95,East,90,2.0,2.0,95,0.06,,---,0.06,VWS V14.01,2013-08-14 00:09:00,
2013-08-13 19:14:00,74.8,73.3,29.95,East,98,1.0,3.0,95,0.06,,---,0.06,VWS V14.01,2013-08-14 00:14:00,
2013-08-13 19:19:00,74.6,73.1,29.95,East,89,1.0,5.0,95,0.06,,---,0.06,VWS V14.01,2013-08-14 00:19:00,
2013-08-13 19:24:00,74.4,72.9,29.95,East,90,1.0,5.0,95,0.06,,---,0.06,VWS V14.01,2013-08-14 00:24:00,
2013-08-13 19:29:00,74.3,73.1,29.95,East,90,2.0,5.0,96,0.06,,---,0.06,VWS V14.01,2013-08-14 00:29:00,
2013-08-13 19:34:00,74.2,72.7,29.95,ESE,106,2.0,5.0,95,0.06,,---,0.06,VWS V14.01,2013-08-14 00:34:00,
2013-08-13 19:36:00,74.1,72.6,29.96,ENE,77,0.0,5.0,95,0.06,,---,0.06,VWS V14.01,2013-08-14 00:36:00,
2013-08-13 19:44:00,74.0,72.5,29.96,ENE,78,1.0,2.0,95,0.01,,---,0.06,VWS V14.01,2013-08-14 00:44:00,
2013-08-13 19:49:00,73.9,72.7,29.96,ENE,78,1.0,2.0,96,0.01,,---,0.06,VWS V14.01,2013-08-14 00:49:00,
2013-08-13 19:54:00,73.9,72.7,29.96,ENE,78,0.0,2.0,96,0.01,,---,0.06,VWS V14.01,2013-08-14 00:54:00,
2013-08-13 19:59:00,73.9,72.7,29.96,ENE,78,0.0,2.0,96,0.01,,---,0.06,VWS V14.01,2013-08-14 00:59:00,
2013-08-13 20:04:00,73.8,72.6,29.96,ENE,78,0.0,2.0,96,0.01,,---,0.06,VWS V14.01,2013-08-14 01:04:00,
2013-08-13 20:06:00,73.8,72.6,29.97,ENE,78,0.0,2.0,96,0.01,,---,0.06,VWS V14.01,2013-08-14 01:06:00,
2013-08-13 20:09:00,73.8,72.6,29.96,ENE,78,1.0,1.0,96,0.00,,---,0.06,VWS V14.01,2013-08-14 01:09:00,
2013-08-13 20:14:00,73.8,72.6,29.96,ENE,78,1.0,1.0,96,0.00,,---,0.06,VWS V14.01,2013-08-14 01:14:00,
2013-08-13 20:19:00,73.8,72.6,29.96,ENE,78,1.0,2.0,96,0.00,,---,0.06,VWS V14.01,2013-08-14 01:19:00,
2013-08-13 20:24:00,73.8,72.6,29.96,SW,221,1.0,2.0,96,0.00,,---,0.06,VWS V14.01,2013-08-14 01:24:00,
2013-08-13 20:29:00,73.8,72.6,29.95,SSE,158,0.0,2.0,96,0.00,,---,0.06,VWS V14.01,2013-08-14 01:29:00,
2013-08-13 20:34:00,73.9,72.7,29.95,SSE,158,0.0,2.0,96,0.00,,---,0.06,VWS V14.01,2013-08-14 01:34:00,
2013-08-13 20:36:00,73.9,72.7,29.95,SSE,158,1.0,2.0,96,0.00,,---,0.06,VWS V14.01,2013-08-14 01:36:00,
2013-08-13 20:39:00,73.9,72.7,29.95,SSE,158,1.0,1.0,96,0.00,,---,0.06,VWS V14.01,2013-08-14 01:39:00,
2013-08-13 20:44:00,74.0,72.8,29.95,SSE,158,0.0,1.0,96,0.00,,---,0.06,VWS V14.01,2013-08-14 01:44:00,
2013-08-13 20:49:00,74.1,72.9,29.95,SSE,158,0.0,1.0,96,0.00,,---,0.06,VWS V14.01,2013-08-14 01:49:00,
2013-08-13 20:54:00,74.2,73.0,29.95,SSE,158,0.0,1.0,96,0.00,,---,0.06,VWS V14.01,2013-08-14 01:54:00,
2013-08-13 20:59:00,74.1,72.9,29.96,SSE,158,0.0,1.0,96,0.00,,---,0.06,VWS V14.01,2013-08-14 01:59:00,
2013-08-13 21:04:00,74.0,72.8,29.96,SSE,158,0.0,1.0,96,0.00,,---,0.06,VWS V14.01,2013-08-14 02:04:00,
2013-08-13 21:06:00,73.9,72.7,29.96,East,92,0.0,2.0,96,0.00,,---,0.06,VWS V14.01,2013-08-14 02:06:00,
2013-08-13 21:09:00,73.9,72.7,29.96,East,92,0.0,0.0,96,0.00,,---,0.06,VWS V14.01,2013-08-14 02:09:00,
2013-08-13 21:14:00,73.9,73.0,29.96,SE,138,0.0,1.0,97,0.00,,---,0.06,VWS V14.01,2013-08-14 02:14:00,
2013-08-13 21:19:00,73.9,73.0,29.97,SE,138,0.0,1.0,97,0.00,,---,0.06,VWS V14.01,2013-08-14 02:19:00,
2013-08-13 21:24:00,73.9,73.0,29.98,WSW,246,0.0,2.0,97,0.00,,---,0.06,VWS V14.01,2013-08-14 02:24:00,
2013-08-13 21:29:00,73.9,73.0,29.99,WSW,246,0.0,2.0,97,0.00,,---,0.06,VWS V14.01,2013-08-14 02:29:00,
2013-08-13 21:34:00,74.1,73.2,30.00,WSW,246,0.0,2.0,97,0.00,,---,0.06,VWS V14.01,2013-08-14 02:34:00,
2013-08-13 21:36:00,74.2,73.3,30.00,WSW,246,0.0,2.0,97,0.00,,---,0.06,VWS V14.01,2013-08-14 02:36:00,
2013-08-13 21:39:00,74.1,73.2,29.99,SSE,150,2.0,3.0,97,0.00,,---,0.06,VWS V14.01,2013-08-14 02:39:00,
2013-08-13 21:44:00,74.2,73.3,29.97,SSE,150,0.0,3.0,97,0.00,,---,0.06,VWS V14.01,2013-08-14 02:44:00,
2013-08-13 21:49:00,74.2,73.3,29.97,SSE,150,2.0,3.0,97,0.00,,---,0.06,VWS V14.01,2013-08-14 02:49:00,
2013-08-13 21:54:00,74.1,73.2,29.97,SSE,150,0.0,3.0,97,0.00,,---,0.06,VWS V14.01,2013-08-14 02:54:00,
2013-08-13 21:59:00,74.0,73.1,29.97,ENE,71,0.0,3.0,97,0.00,,---,0.06,VWS V14.01,2013-08-14 02:59:00,
2013-08-13 22:05:00,74.0,73.1,29.98,WSW,245,4.0,4.0,97,0.00,,---,0.06,VWS V14.01,2013-08-14 03:05:00,
2013-08-13 22:06:00,73.9,73.0,29.97,SW,223,4.0,6.0,97,0.00,,---,0.06,VWS V14.01,2013-08-14 03:06:00,
2013-08-13 22:15:00,73.9,73.0,29.97,ESE,110,0.0,5.0,97,0.00,,---,0.06,VWS V14.01,2013-08-14 03:15:00,
2013-08-13 22:20:00,73.9,73.0,29.96,SSE,159,0.0,5.0,97,0.00,,---,0.06,VWS V14.01,2013-08-14 03:20:00,
2013-08-13 22:25:00,73.9,73.0,29.96,East,92,0.0,5.0,97,0.00,,---,0.06,VWS V14.01,2013-08-14 03:25:00,
2013-08-13 22:30:00,73.9,73.0,29.96,NE,51,1.0,5.0,97,0.00,,---,0.06,VWS V14.01,2013-08-14 03:30:00,
2013-08-13 22:35:00,73.9,73.0,29.96,East,98,0.0,5.0,97,0.00,,---,0.06,VWS V14.01,2013-08-14 03:35:00,
2013-08-13 22:36:00,73.8,72.9,29.96,SSW,212,0.0,5.0,97,0.00,,---,0.06,VWS V14.01,2013-08-14 03:36:00,
2013-08-13 22:40:00,73.8,72.9,29.96,East,96,0.0,2.0,97,0.00,,---,0.06,VWS V14.01,2013-08-14 03:40:00,
2013-08-13 22:45:00,73.9,73.0,29.96,South,186,0.0,2.0,97,0.00,,---,0.06,VWS V14.01,2013-08-14 03:45:00,
2013-08-13 22:50:00,73.8,72.9,29.97,SW,227,1.0,4.0,97,0.00,,---,0.06,VWS V14.01,2013-08-14 03:50:00,
2013-08-13 22:55:00,73.8,72.9,29.97,West,267,1.0,4.0,97,0.00,,---,0.06,VWS V14.01,2013-08-14 03:55:00,
2013-08-13 23:00:00,73.9,73.0,29.97,North,5,1.0,4.0,97,0.00,,---,0.06,VWS V14.01,2013-08-14 04:00:00,
2013-08-13 23:05:00,74.0,73.1,29.96,WSW,241,0.0,5.0,97,0.00,,---,0.06,VWS V14.01,2013-08-14 04:05:00,
2013-08-13 23:06:00,73.9,73.0,29.96,WNW,296,2.0,6.0,97,0.00,,---,0.06,VWS V14.01,2013-08-14 04:06:00,
2013-08-13 23:10:00,73.9,73.0,29.96,WNW,303,0.0,2.0,97,0.00,,---,0.06,VWS V14.01,2013-08-14 04:10:00,
2013-08-13 23:15:00,73.9,73.0,29.95,West,281,0.0,3.0,97,0.00,,---,0.06,VWS V14.01,2013-08-14 04:15:00,
2013-08-13 23:20:00,73.9,73.0,29.96,West,280,0.0,3.0,97,0.00,,---,0.06,VWS V14.01,2013-08-14 04:20:00,
2013-08-13 23:25:00,73.8,72.9,29.95,SW,234,2.0,5.0,97,0.00,,---,0.06,VWS V14.01,2013-08-14 04:25:00,
2013-08-13 23:30:00,73.7,72.8,29.95,SW,229,3.0,7.0,97,0.00,,---,0.06,VWS V14.01,2013-08-14 04:30:00,
2013-08-13 23:35:00,73.6,72.7,29.95,NNW,342,2.0,7.0,97,0.00,,---,0.06,VWS V14.01,2013-08-14 04:35:00,
2013-08-13 23:36:00,73.6,72.7,29.95,NW,321,1.0,7.0,97,0.00,,---,0.06,VWS V14.01,2013-08-14 04:36:00,
2013-08-13 23:40:00,73.6,72.7,29.96,SW,228,0.0,3.0,97,0.00,,---,0.06,VWS V14.01,2013-08-14 04:40:00,
2013-08-13 23:45:00,73.6,72.7,29.96,WSW,248,1.0,4.0,97,0.00,,---,0.06,VWS V14.01,2013-08-14 04:45:00,
2013-08-13 23:50:00,73.7,72.8,29.96,West,265,2.0,4.0,97,0.00,,---,0.06,VWS V14.01,2013-08-14 04:50:00,
2013-08-13 23:55:00,73.7,72.8,29.96,West,265,0.0,4.0,97,0.00,,---,0.06,VWS V14.01,2013-08-14 04:55:00,